STARLINK-1781 (46685 NORAD) Tracking and Keplerian Element Data

This shows tracking and keplerian element data for the satellite.

Feedback or suggestion? Click here.




ElementValue
Catalog46685
NameSTARLINK-1781
Epoch Orbit1452
Epoch Day17.91667824
Epoch Year2021
RAAN41.7999
Inclination53.0497
Eccentricity0.0001339
Argument of Perigee62.1214
Mean Anonmoly192.2397
Mean Motion15.06379196
Decay Rate0.00039367
L11 46685U 20073R 21017.91667824 .00039367 00000-0 26485-2 0 9990
L22 46685 53.0497 41.7999 0001339 62.1214 192.2397 15.06379196 14522

Live tracking and technical data element details for STARLINK-1781 (NORAD 46685). STARLINK-1781 can be tracked NOW for your location showing map with azimuth and elevation plus other details from your city location.

Track the satellite on the map from your city or location and see movement details for azimuth, elevation, latitude, longitude, range, height, and movement on the map or in text.







IsCatalogInMostPopularTable: catalog: 46685, numindb: 27
Update: records affected: 1



GetName: 46685 STARLINK-1781

Hit Count: updated at: Tue, 19 Jan 2021 02:41:40 GMT